Laurent Verva

Laurent Verva

Statistiques 2026

  • Courses courues : 42
  • Nb de victoires : -
  • Nb de places : 1
  • Écart gagnant : 143
  • Réussite à la gagne : -
  • Réussite à la place : 2%
Musique : 0a 8a 4a 6a 6a 0a 5a 5a Da 2a 9a 6a 5a Da 6a 0a 7a 4a
DateRangCatégorieAlloc.Dist.HippodromeChevalRed. KmSpé.
19/08/18 1 Trot 16 000€ 2 925m Arras Destrier d'Isques Attelé
19/08/18 4 Trot 21 000€ 2 925m Arras Cybele de Godrel Attelé
19/08/18 3 Trot 14 000€ 2 925m Arras Elixir Neslois Attelé
21/08/18 6 Trot 27 000€ 2 050m Cabourg Diego du Houlet 1'13"1 Attelé
21/08/18 0 Trot 24 000€ 2 050m Cabourg Elliot d'Alci Attelé
25/08/18 5 Trot 13 000€ 2 400m Amiens Fire Bird 1'18"7 Attelé
25/08/18 7 Trot 17 000€ 2 925m Amiens Daisy de la Folie 1'16"9 Attelé
25/08/18 0 Trot 15 000€ 2 400m Amiens Elixir Neslois Attelé
26/08/18 4 Trot 10 000€ 2 600m Le Touquet Filou d'Avesnes Attelé
26/08/18 D Trot 10 000€ 2 600m Le Touquet Farca Sly Attelé
26/08/18 4 Trot 13 000€ 2 625m Le Touquet Ensoleillee Volo Attelé
26/08/18 9 Trot 25 000€ 2 625m Le Touquet Altesse d'Ardennes Attelé
26/08/18 5 Trot 13 000€ 2 625m Le Touquet Ercule de Navary Attelé
28/08/18 D Trot 19 000€ 2 700m La Capelle Fringant Pacha Attelé
28/08/18 4 Trot 20 000€ 2 700m La Capelle Ethano de Bouteau 1'16"3 Attelé
28/08/18 7 Trot 23 000€ 2 700m La Capelle Calba du Pont 1'15"3 Attelé
28/08/18 6 Trot 23 000€ 2 700m La Capelle Cirio 1'15"3 Attelé
28/08/18 D Trot 30 000€ 2 775m La Capelle Aristo Attelé
01/09/18 3 Trot 23 000€ 2 800m Vichy Altesse d'Ardennes 1'13"8 Attelé
01/09/18 1 Trot 21 000€ 2 800m Vichy Eros In Love 1'14"6 Attelé
02/09/18 6 Trot 13 000€ 2 625m Saint Omer Fidji Song 1'20"3 Attelé
02/09/18 0 Trot 14 000€ 2 650m Saint Omer Eden Pierji Attelé
02/09/18 4 Trot 13 000€ 2 625m Saint Omer Flashback Syga 1'21"2 Attelé
02/09/18 2 Trot 25 000€ 2 650m Saint Omer Au Temps Dubonheur 1'15"9 Attelé
02/09/18 D Trot 14 000€ 2 625m Saint Omer Epona des Neuzy Attelé
02/09/18 8 Trot 15 000€ 2 625m Saint Omer Dryade des Salines 1'20"2 Attelé
03/09/18 D Trot 25 000€ 2 900m Amiens Aristo de Chanjac Attelé
03/09/18 1 Trot 20 000€ 2 925m Amiens Diego du Houlet 1'16"5 Attelé
03/09/18 1 Trot 15 000€ 2 400m Amiens Ercule de Navary 1'16"7 Attelé
03/09/18 D Trot 15 000€ 2 400m Amiens Fire Bird Attelé
06/09/18 8 Trot 25 000€ 2 900m Amiens Bilingue d'Alci 1'16"0 Attelé
06/09/18 2 Trot 22 000€ 2 400m Amiens Dollar de l'Iton 1'15"1 Attelé
06/09/18 6 Trot 21 000€ 2 925m Amiens Elliot d'Alci 1'18"1 Attelé
06/09/18 7 Trot 21 000€ 2 925m Amiens Elisee du Pont 1'18"1 Attelé
06/09/18 8 Trot 21 000€ 2 400m Amiens Fabuleux de Corday 1'17"7 Attelé
10/09/18 9 Trot 15 000€ 2 700m Le Croise Laroche Felinara 1'19"6 Attelé
09/09/18 D Trot 17 000€ 2 650m Laon Easy de Navary Attelé
09/09/18 D Trot 35 000€ 2 875m Laon Venus du Rosay Attelé
09/09/18 3 Trot 13 000€ 2 850m Laon Fayette Dream 1'20"6 Attelé
09/09/18 5 Trot 17 000€ 2 650m Laon Elokai 1'18"0 Attelé
11/09/18 0 Trot 32 000€ 2 950m Toulouse Amio Josselyn Attelé lire

Un des animateurs, a été progressivement dominé depuis le bout de la ligne opposée.

11/09/18 1 Trot 17 000€ 2 975m Toulouse Eros In Love 1'16"6 Attelé lire

Vite en tête, détaché des autres, a gagné de toute une distance.

13/09/18 6 Trot 20 000€ 2 600m Reims Dollar de l'Iton 1'15"5 Attelé
13/09/18 6 Trot 20 000€ 2 600m Reims Elisee du Pont 1'16"4 Attelé
13/09/18 0 Trot 22 000€ 2 600m Reims Frivole d'Arbaz Attelé
14/09/18 3 Trot 20 000€ 2 700m Le Croise Laroche Diego du Houlet 1'15"8 Attelé
14/09/18 0 Trot 15 000€ 2 700m Le Croise Laroche Etoile Dubonheur Attelé
17/09/18 5 Trot 18 000€ 2 750m Cabourg Flamme Mencourt 1'17"1 Attelé
20/09/18 5 Trot 23 000€ 2 650m Lyon La Soie Altesse d'Ardennes 1'14"5 Attelé
22/09/18 4 Trot 25 000€ 2 850m Mauquenchy Cyrus d'Alci 1'15"2 Attelé